This is the latest recevied weather packets stored in our database for station/object HB9TJM-8. If no packets are shown the sender has not sent any weather packets the latest 10 day(s).
| Time | Temp. | Humidity | Pressure | Rain* | Wind** | Luminosity | Snow |
|---|---|---|---|---|---|---|---|
| 1777383508 | 13.89° C | 61% | 1016.4 hPa | 0.25 mm | - | 144 W/m² | - |
| 1777383508 | 13.89° C | 61% | 1016.4 hPa | 0.25 mm | - | 144 W/m² | - |
| 1777383201 | 13.89° C | 63% | 1016.2 hPa | 0.25 mm | - | 136 W/m² | - |
| 1777383201 | 13.89° C | 63% | 1016.2 hPa | 0.25 mm | - | 136 W/m² | - |
| 1777382894 | 13.89° C | 60% | 1016.1 hPa | 0 mm | - | 162 W/m² | - |
| 1777382587 | 13.89° C | 64% | 1016.2 hPa | 0.25 mm | - | 198 W/m² | - |
| 1777382587 | 13.89° C | 64% | 1016.2 hPa | 0.25 mm | - | 198 W/m² | - |
| 1777382280 | 13.89° C | 68% | 1016.3 hPa | 0.25 mm | - | 233 W/m² | - |
| 1777381973 | 13.89° C | 64% | 1016.1 hPa | 0.25 mm | - | 244 W/m² | - |
| 1777381973 | 13.89° C | 64% | 1016.1 hPa | 0.25 mm | - | 244 W/m² | - |
| 1777381666 | 13.89° C | 66% | 1016.3 hPa | 0.25 mm | - | 201 W/m² | - |
| 1777381666 | 13.89° C | 66% | 1016.3 hPa | 0.25 mm | - | 201 W/m² | - |
| 1777381358 | 13.89° C | 61% | 1016.3 hPa | 0.25 mm | - | 184 W/m² | - |
| 1777381358 | 13.89° C | 61% | 1016.3 hPa | 0.25 mm | - | 184 W/m² | - |
| 1777381051 | 13.89° C | 64% | 1016.1 hPa | 0.25 mm | - | 191 W/m² | - |
| 1777381051 | 13.89° C | 64% | 1016.1 hPa | 0.25 mm | - | 191 W/m² | - |
| 1777380744 | 13.89° C | 64% | 1016.1 hPa | 0.51 mm | - | 168 W/m² | - |
| 1777380744 | 13.89° C | 64% | 1016.1 hPa | 0.51 mm | - | 168 W/m² | - |
| 1777380437 | 13.89° C | 66% | 1015.8 hPa | 0.51 mm | - | 207 W/m² | - |
| 1777380437 | 13.89° C | 66% | 1015.8 hPa | 0.51 mm | - | 207 W/m² | - |
| 1777380130 | 14.44° C | 64% | 1015.8 hPa | 0.51 mm | - | 251 W/m² | - |
| 1777380129 | 14.44° C | 64% | 1015.8 hPa | 0.51 mm | - | 251 W/m² | - |
| 1777379822 | 13.89° C | 66% | 1015.8 hPa | 0.51 mm | - | 246 W/m² | - |
| 1777379822 | 13.89° C | 66% | 1015.8 hPa | 0.51 mm | - | 246 W/m² | - |
| 1777379515 | 13.33° C | 70% | 1015.6 hPa | 0.51 mm | - | 265 W/m² | - |
* Rain latest hour (hover to see other rain measurements)
** Current wind speed in m/s (hover to see current wind gust speed)